Skip Page Navigation
NASA JPL Caltech
NASA Logo - Jet Propulsion Laboratory + View the NASA Portal
+ Center for Near-Earth Object Studies
JPL Home Earth Solar System Stars & Galaxies Technology
JPL Solar System Dynamics
BODIES ORBITS EPHEMERIDES TOOLS PHYSICAL DATA DISCOVERY FAQ SITE MAP
JPL Small-Body Database Browser
Search: [ help ]  
1068 Nofretete (1926 RK)
Classification: Main-belt Asteroid          SPK-ID: 2001068
Ephemeris | Orbit Diagram | Orbital Elements | Mission Design | Physical Parameters | Discovery Circumstances | Close-Approach Data ]

[ show orbit diagram ]
Orbital Elements at Epoch 2459000.5 (2020-May-31.0) TDB
Reference: JPL 38 (heliocentric ecliptic J2000)
 Element Value Uncertainty (1-sigma)   Units 
e .0974885516809363 3.113e-08  
a 2.907196583730993 1.063e-08 au
q 2.623778199331293 8.9129e-08 au
i 5.489960339791737 3.9121e-06 deg
node 318.5991673389431 3.4729e-05 deg
peri 266.7881616390562 4.0439e-05 deg
M 89.72091374706682 2.197e-05 deg
tp 2458549.266625863326
(2019-Mar-06.76662586)
0.00011019 TDB
period 1810.54793029806
4.96
9.9306e-06
2.719e-08
d
yr
n .198834835563141 1.0906e-09 deg/d
Q 3.190614968130693 1.1667e-08 au
  Orbit Determination Parameters
   # obs. used (total)      4046  
   data-arc span      33516 days (91.76 yr)  
   first obs. used      1929-02-05  
   last obs. used      2020-11-10  
   planetary ephem.      DE431  
   SB-pert. ephem.      SB431-N16  
   condition code      0  
   norm. resid. RMS      .35863  
   source      ORB  
   producer      Otto Matic  
   solution date      2020-Dec-18 01:58:10  

Additional Information
 Earth MOID = 1.62192 au 
 Jupiter MOID = 1.84119 au 
 T_jup = 3.271 
[ show covariance matrix ]

Ephemeris | Orbit Diagram | Orbital Elements | Mission Design | Physical Parameters | Discovery Circumstances | Close-Approach Data ]

Physical Parameter Table
Parameter Symbol Value Units Sigma Reference Notes
absolute magnitude H 10.7   n/a MPO492762  
diameter diameter 21.346 km 0.106 urn:nasa:pds:neowise_diameters_albedos::2.0[mainbelt] (http://adsabs.harvard.edu/abs/2014ApJ...791..121M)  
rotation period rot_per 6.15 h n/a LCDB (Rev. 2020-October); Warner et al., 2009 Result based on less than full coverage, so that the period may be wrong by 30 percent or so.
Published Reference List:
[Binzel, R.P. (1987) Icarus 72, 135-208.]
geometric albedo albedo 0.142   0.025 urn:nasa:pds:neowise_diameters_albedos::2.0[mainbelt] (http://adsabs.harvard.edu/abs/2012ApJ...759L...8M)  
B-V BV 0.850   0.020 EAR-A-5-DDR-UBV-MEAN-VALUES-V1.2 #obs=1; phase=14.87 deg.
U-B UB 0.420   0.030 EAR-A-5-DDR-UBV-MEAN-VALUES-V1.2 #obs=1; phase=14.87 deg.

1068 Nofretete (1926 RK)          Discovered 1926-Sep-13 by Delporte, E. at Uccle
Reference: DISCOVERY.DBLast Updated: 2003-08-29

[ show close-approach data ]
Alternate Designations
 1926 RK = 1929 CV 
Ephemeris | Orbit Diagram | Orbital Elements | Mission Design | Physical Parameters | Discovery Circumstances | Close-Approach Data ]
ABOUT SSD CREDITS/AWARDS PRIVACY/COPYRIGHT GLOSSARY LINKS
FirstGov 2021-Jan-22 07:22 UT
(server date/time)  
NASA Home Page
Site Manager:   Ryan S. Park
Webmaster  Alan B. Chamberlin